This is the latest recevied weather packets stored in our database for station/object SQ6RR-12. If no packets are shown the sender has not sent any weather packets the latest 10 day(s).
| Time | Temp. | Humidity | Pressure | Rain* | Wind** | Luminosity | Snow |
|---|---|---|---|---|---|---|---|
| 1777879382 | 21.67° C | 44% | 1015.5 hPa | 0 mm | - | - | - |
| 1777879121 | 21.11° C | 43% | 1015.5 hPa | 0 mm | - | - | - |
| 1777878857 | 20.56° C | 46% | 1015.5 hPa | 0 mm | - | - | - |
| 1777878587 | 21.11° C | 45% | 1015.6 hPa | 0 mm | - | - | - |
| 1777878302 | 20.56° C | 47% | 1015.6 hPa | 0 mm | - | - | - |
| 1777878012 | 20.56° C | 44% | 1015.5 hPa | 0 mm | - | - | - |
| 1777877759 | 21.11° C | 44% | 1015.5 hPa | 0 mm | - | - | - |
| 1777877517 | 21.67° C | 44% | 1015.5 hPa | 0 mm | - | - | - |
| 1777877238 | 21.11° C | 45% | 1015.4 hPa | 0 mm | - | - | - |
| 1777876972 | 21.11° C | 44% | 1015.5 hPa | 0 mm | - | - | - |
| 1777876706 | 21.11° C | 44% | 1015.5 hPa | 0 mm | - | - | - |
| 1777876441 | 21.11° C | 45% | 1015.6 hPa | 0 mm | - | - | - |
| 1777876162 | 21.11° C | 45% | 1015.6 hPa | 0 mm | - | - | - |
| 1777875886 | 20.56° C | 46% | 1015.6 hPa | 0 mm | - | - | - |
| 1777875622 | 20.56° C | 48% | 1015.6 hPa | 0 mm | - | - | - |
| 1777875352 | 20.56° C | 50% | 1015.6 hPa | 0 mm | - | - | - |
| 1777875060 | 20° C | 52% | 1015.5 hPa | 0 mm | - | - | - |
| 1777874795 | 19.44° C | 56% | 1015.5 hPa | 0 mm | - | - | - |
| 1777874550 | 18.33° C | 64% | 1015.6 hPa | 0 mm | - | - | - |
| 1777874302 | 17.78° C | 69% | 1015.5 hPa | 0 mm | - | - | - |
| 1777874047 | 16.11° C | 71% | 1015.5 hPa | 0 mm | - | - | - |
| 1777873795 | 15.56° C | 75% | 1015.5 hPa | 0 mm | - | - | - |
| 1777873527 | 14.44° C | 74% | 1015.6 hPa | 0 mm | - | - | - |
| 1777873262 | 14.44° C | 74% | 1015.6 hPa | 0 mm | - | - | - |
| 1777872991 | 14.44° C | 73% | 1015.7 hPa | 0 mm | - | - | - |
* Rain latest hour (hover to see other rain measurements)
** Current wind speed in m/s (hover to see current wind gust speed)